Погода в Хороле

Россия / Приморский край     44°25′38″N   132°04′29″E
темп.,
°C
ветер,
м/с
пор.,
м/с
влажн.,
%
обл.,
%
осадки,
мм/ч
давл.,
гПа
погр.,
м
15 мая, сб
сб1501:00+14ю92061100 0.0 1008692
04:00+13ю112074100 0.0 1007591
07:00+13ююз101980100 0.0 1007443
10:00+17ююз111772100 0.0 1006547
13:00+20ю111464100 0.0 1005696
16:00+18юз91478100 0.8 1005728
19:00+14зюз4792100 8.6 1007428
22:00+13юз2388100 12.4 1010112
16 мая, вс
вс1601:00+11юз358077 0.0 1010112
04:00+9юз358137 0.0 100976
07:00+10юз237522 0.0 100962
10:00+16сз1252100 0.0 1008424
13:00+20вюв134191 0.0 10071344
16:00+21в3338100 0.0 10051580
19:00+19юв225397 0.0 100531
22:00+14ююз22636 0.0 100615
17 мая, пн
пн1701:00+13зюз226857 0.0 100623
04:00+11юз33603 0.0 100525
07:00+11ююз35645 0.0 100687
10:00+19юз564492 0.0 1006472
13:00+25зюз472589 0.0 10042339
16:00+25з4627100 0.0 10042671
19:00+20ююв3552100 0.0 100496
22:00+16ююз4848100 0.0 1005127
18 мая, вт
вт1801:00+14ююз3657100 0.0 100593
04:00+12ююз4864100 0.0 1005125
07:00+12ююз596746 0.0 1005188
10:00+19ююз68500 0.0 1005393
13:00+24ююз67390 0.0 1003937
16:00+24ю911410 0.0 1002653
19:00+18ю816523 0.0 1002428
22:00+14ююз717623 0.0 1004393
19 мая, ср
ср1901:00+12ююз7137362 0.0 1005260
04:00+11ююз612803 0.0 1005234
07:00+12ююз59831 0.0 1006176
10:00+19юз23578 0.0 1007380
13:00+24всв02453 0.0 10071086
16:00+24в444757 0.0 1005670
19:00+18св356736 1.1 1007198
22:00+15св1079100 1.4 100911